TimeEDT,TemperatureF,Dew PointF,Humidity,Sea Level PressureIn,VisibilityMPH,Wind Direction,Wind SpeedMPH,Gust SpeedMPH,PrecipitationIn,Events,Conditions,WindDirDegrees,DateUTC
12:23 AM,71.6,69.8,94,29.90,2.5,Calm,Calm,-,N/A,,Overcast,0,2013-07-12 04:23:00
12:38 AM,69.8,69.8,100,29.90,1.5,Calm,Calm,-,N/A,,Scattered Clouds,0,2013-07-12 04:38:00
12:53 AM,70.0,69.1,97,29.90,1.2,Calm,Calm,-,N/A,,Clear,0,2013-07-12 04:53:00
1:03 AM,69.8,69.8,100,29.90,3.0,Calm,Calm,-,N/A,,Clear,0,2013-07-12 05:03:00
1:31 AM,69.8,69.8,100,29.90,1.8,Calm,Calm,-,N/A,,Clear,0,2013-07-12 05:31:00
1:41 AM,68.0,66.2,94,29.90,3.0,Calm,Calm,-,N/A,,Clear,0,2013-07-12 05:41:00
1:44 AM,68.0,66.2,94,29.90,1.5,Calm,Calm,-,N/A,,Clear,0,2013-07-12 05:44:00
1:47 AM,69.8,68.0,94,29.90,0.8,Calm,Calm,-,N/A,,Mist,0,2013-07-12 05:47:00
1:53 AM,69.1,68.0,96,29.91,0.5,Calm,Calm,-,N/A,Fog,Fog,0,2013-07-12 05:53:00
1:59 AM,69.8,68.0,94,29.90,1.5,Calm,Calm,-,N/A,,Partly Cloudy,0,2013-07-12 05:59:00
2:04 AM,69.8,68.0,94,29.91,3.0,Calm,Calm,-,N/A,,Partly Cloudy,0,2013-07-12 06:04:00
2:18 AM,69.8,69.8,100,29.91,5.0,North,3.5,-,N/A,,Mostly Cloudy,10,2013-07-12 06:18:00
2:43 AM,71.6,69.8,94,29.92,6.0,Calm,Calm,-,N/A,,Overcast,0,2013-07-12 06:43:00
2:53 AM,71.1,70.0,96,29.92,6.0,Calm,Calm,-,N/A,,Overcast,0,2013-07-12 06:53:00
3:33 AM,71.6,69.8,94,29.94,5.0,NNE,5.8,-,N/A,,Overcast,20,2013-07-12 07:33:00
3:53 AM,72.0,70.0,93,29.95,6.0,NNE,8.1,-,N/A,,Overcast,20,2013-07-12 07:53:00
4:23 AM,71.6,69.8,94,29.95,8.0,NNE,5.8,-,N/A,,Overcast,30,2013-07-12 08:23:00
4:53 AM,71.1,69.1,93,29.96,10.0,NNE,8.1,-,N/A,,Mostly Cloudy,30,2013-07-12 08:53:00
5:09 AM,71.6,69.8,94,29.97,10.0,NNE,8.1,-,N/A,,Mostly Cloudy,20,2013-07-12 09:09:00
5:20 AM,71.6,69.8,94,29.97,10.0,NNE,8.1,-,N/A,,Overcast,30,2013-07-12 09:20:00
5:53 AM,71.1,69.1,93,29.98,10.0,NNE,9.2,-,N/A,,Overcast,20,2013-07-12 09:53:00
6:53 AM,70.0,68.0,93,29.99,10.0,NNE,11.5,-,0.01,,Overcast,30,2013-07-12 10:53:00
7:53 AM,71.1,66.9,87,30.02,10.0,NNE,8.1,-,N/A,,Overcast,30,2013-07-12 11:53:00
8:53 AM,72.0,64.0,76,30.03,10.0,NNE,12.7,-,N/A,,Mostly Cloudy,30,2013-07-12 12:53:00
9:53 AM,72.0,64.0,76,30.05,10.0,NNE,13.8,18.4,N/A,,Overcast,30,2013-07-12 13:53:00
10:21 AM,71.6,64.4,78,30.05,10.0,NNE,8.1,16.1,N/A,,Mostly Cloudy,30,2013-07-12 14:21:00
10:53 AM,73.9,66.0,76,30.07,10.0,NNE,9.2,-,N/A,,Overcast,30,2013-07-12 14:53:00
11:05 AM,73.4,64.4,73,30.07,10.0,NNE,11.5,18.4,N/A,,Overcast,30,2013-07-12 15:05:00
11:53 AM,73.0,64.0,73,30.07,10.0,NE,13.8,24.2,N/A,,Mostly Cloudy,40,2013-07-12 15:53:00
12:53 PM,73.0,64.0,73,30.07,10.0,NNE,10.4,21.9,N/A,,Mostly Cloudy,20,2013-07-12 16:53:00
1:53 PM,73.0,64.0,73,30.08,10.0,NE,16.1,-,N/A,,Mostly Cloudy,50,2013-07-12 17:53:00
2:00 PM,71.6,64.4,78,30.08,10.0,NE,13.8,-,N/A,,Overcast,40,2013-07-12 18:00:00
2:53 PM,71.1,64.0,78,30.09,10.0,NE,15.0,-,N/A,,Overcast,50,2013-07-12 18:53:00
3:53 PM,70.0,62.1,76,30.11,10.0,NNE,9.2,16.1,N/A,,Overcast,30,2013-07-12 19:53:00
4:53 PM,70.0,62.1,76,30.10,10.0,NE,11.5,-,N/A,,Overcast,40,2013-07-12 20:53:00
5:53 PM,71.1,62.1,73,30.11,10.0,NNE,10.4,-,N/A,,Mostly Cloudy,30,2013-07-12 21:53:00
6:53 PM,69.1,62.1,78,30.11,10.0,NNE,8.1,-,N/A,,Overcast,30,2013-07-12 22:53:00
7:53 PM,66.9,62.1,84,30.13,10.0,NNE,9.2,-,N/A,,Overcast,30,2013-07-12 23:53:00
8:48 PM,66.2,62.6,88,30.14,10.0,ENE,8.1,-,N/A,,Overcast,60,2013-07-13 00:48:00
8:53 PM,66.0,62.1,87,30.14,10.0,NE,8.1,-,N/A,,Overcast,50,2013-07-13 00:53:00
9:53 PM,66.0,63.0,90,30.15,10.0,ENE,5.8,-,N/A,,Overcast,60,2013-07-13 01:53:00
10:00 PM,66.2,62.6,88,30.15,10.0,NE,6.9,-,N/A,,Overcast,40,2013-07-13 02:00:00
10:36 PM,66.2,62.6,88,30.16,10.0,NE,6.9,-,N/A,,Overcast,50,2013-07-13 02:36:00
10:53 PM,66.0,64.0,93,30.17,10.0,NE,5.8,-,N/A,,Overcast,50,2013-07-13 02:53:00
11:53 PM,66.0,64.9,96,30.17,6.0,NE,5.8,-,N/A,,Overcast,40,2013-07-13 03:53:00